owner,sensor,date,latitude,longitude,vertical_datum,direction_of_sea_water_velocity,sea_water_speed,upward_sea_water_velocity,qcFlag 
TABS,ioos:station:wmo:42050:1,2005-04-01T00:00:00Z,28.8425,-94.2433,2.0,324.7614035,12.92923818,-99999.0,'11111222,11111222,99999999' 
TABS,ioos:station:wmo:42050:1,2005-04-01T00:30:00Z,28.8425,-94.2433,2.0,336.5070673,12.76840632,-99999.0,'11111222,11111222,99999999' 
TABS,ioos:station:wmo:42050:1,2005-04-01T01:00:00Z,28.8425,-94.2433,2.0,340.7414342,13.8553708,-99999.0,'11111222,11111222,99999999' 
TABS,ioos:station:wmo:42050:1,2005-04-01T01:30:00Z,28.8425,-94.2433,2.0,351.1373474,11.94259603,-99999.0,'11111222,11111222,99999999' 
TABS,ioos:station:wmo:42050:1,2005-04-01T02:00:00Z,28.8425,-94.2433,2.0,349.0913581,12.04770933,-99999.0,'11111222,11111222,99999999' 
TABS,ioos:station:wmo:42050:1,2005-04-01T02:30:00Z,28.8425,-94.2433,2.0,344.0208928,11.58773921,-99999.0,'11111222,11111222,99999999' 
TABS,ioos:station:wmo:42050:1,2005-04-01T03:00:00Z,28.8425,-94.2433,2.0,351.9120917,11.58524061,-99999.0,'11111222,11111222,99999999' 
TABS,ioos:station:wmo:42050:1,2005-04-01T03:30:00Z,28.8425,-94.2433,2.0,2.832841156,11.53409294,-99999.0,'11111222,11111222,99999999' 
TABS,ioos:station:wmo:42050:1,2005-04-01T04:00:00Z,28.8425,-94.2433,2.0,348.6465004,10.26079919,-99999.0,'11111222,11111222,99999999' 
TABS,ioos:station:wmo:42050:1,2005-04-01T04:30:00Z,28.8425,-94.2433,2.0,10.65253456,10.76552368,-99999.0,'11111222,11111222,99999999' 
TABS,ioos:station:wmo:42050:1,2005-04-01T05:00:00Z,28.8425,-94.2433,2.0,2.417368911,13.75223618,-99999.0,'11111222,11111222,99999999' 
TABS,ioos:station:wmo:42050:1,2005-04-01T05:30:00Z,28.8425,-94.2433,2.0,21.36674842,11.50044347,-99999.0,'11111222,11111222,99999999' 
TABS,ioos:station:wmo:42050:1,2005-04-01T06:00:00Z,28.8425,-94.2433,2.0,28.63814542,11.62174255,-99999.0,'11111222,11111222,99999999' 
TABS,ioos:station:wmo:42050:1,2005-04-01T06:30:00Z,28.8425,-94.2433,2.0,21.16813393,17.97269318,-99999.0,'11111222,11111222,99999999' 
TABS,ioos:station:wmo:42050:1,2005-04-01T07:00:00Z,28.8425,-94.2433,2.0,24.62053038,20.42706538,-99999.0,'11111222,11111222,99999999' 
TABS,ioos:station:wmo:42050:1,2005-04-01T07:30:00Z,28.8425,-94.2433,2.0,24.72974053,21.083522,-99999.0,'11111222,11111222,99999999' 
TABS,ioos:station:wmo:42050:1,2005-04-01T08:00:00Z,28.8425,-94.2433,2.0,29.21783643,21.8384798,-99999.0,'11111222,11111222,99999999' 
TABS,ioos:station:wmo:42050:1,2005-04-01T08:30:00Z,28.8425,-94.2433,2.0,46.69655189,21.25787619,-99999.0,'11111222,11111222,99999999' 
TABS,ioos:station:wmo:42050:1,2005-04-01T09:00:00Z,28.8425,-94.2433,2.0,57.38312,25.32373195,-99999.0,'11111222,11111222,99999999' 
TABS,ioos:station:wmo:42050:1,2005-04-01T09:30:00Z,28.8425,-94.2433,2.0,65.36952189,24.90610367,-99999.0,'11111222,11111222,99999999' 
TABS,ioos:station:wmo:42050:1,2005-04-01T10:00:00Z,28.8425,-94.2433,2.0,78.61098917,28.40941041,-99999.0,'11111222,11111222,99999999' 
TABS,ioos:station:wmo:42050:1,2005-04-01T10:30:00Z,28.8425,-94.2433,2.0,87.6987563,30.13430271,-99999.0,'11111222,11111222,99999999' 
TABS,ioos:station:wmo:42050:1,2005-04-01T11:00:00Z,28.8425,-94.2433,2.0,99.58223871,32.1992562,-99999.0,'11111222,11111222,99999999' 
TABS,ioos:station:wmo:42050:1,2005-04-01T11:30:00Z,28.8425,-94.2433,2.0,115.0598192,29.79470591,-99999.0,'11111222,11111222,99999999' 
TABS,ioos:station:wmo:42050:1,2005-04-01T12:00:00Z,28.8425,-94.2433,2.0,118.3800545,26.40332176,-99999.0,'11111222,11111222,99999999' 
TABS,ioos:station:wmo:42050:1,2005-04-01T12:30:00Z,28.8425,-94.2433,2.0,117.9208922,32.6959967,-99999.0,'11111222,11111222,99999999' 
TABS,ioos:station:wmo:42050:1,2005-04-01T13:00:00Z,28.8425,-94.2433,2.0,126.4784538,36.60085382,-99999.0,'11111222,11111222,99999999' 
TABS,ioos:station:wmo:42050:1,2005-04-01T13:30:00Z,28.8425,-94.2433,2.0,125.3957464,35.6858095,-99999.0,'11111222,11111222,99999999' 
TABS,ioos:station:wmo:42050:1,2005-04-01T14:00:00Z,28.8425,-94.2433,2.0,129.061786,36.49870683,-99999.0,'11111222,11111222,99999999' 
TABS,ioos:station:wmo:42050:1,2005-04-01T14:30:00Z,28.8425,-94.2433,2.0,131.7487607,40.02301963,-99999.0,'11111222,11111222,99999999' 
TABS,ioos:station:wmo:42050:1,2005-04-01T15:00:00Z,28.8425,-94.2433,2.0,134.880363,40.67287057,-99999.0,'11111222,11111222,99999999' 
TABS,ioos:station:wmo:42050:1,2005-04-01T15:30:00Z,28.8425,-94.2433,2.0,135.3423134,43.77776262,-99999.0,'11111222,11111222,99999999' 
TABS,ioos:station:wmo:42050:1,2005-04-01T16:00:00Z,28.8425,-94.2433,2.0,145.9899258,46.69816378,-99999.0,'11111222,11111222,99999999' 
TABS,ioos:station:wmo:42050:1,2005-04-01T16:30:00Z,28.8425,-94.2433,2.0,139.7980121,36.09702065,-99999.0,'11111222,11111222,99999999' 
TABS,ioos:station:wmo:42050:1,2005-04-01T17:00:00Z,28.8425,-94.2433,2.0,140.3418767,38.27931295,-99999.0,'11111222,11111222,99999999' 
TABS,ioos:station:wmo:42050:1,2005-04-01T17:30:00Z,28.8425,-94.2433,2.0,137.0784915,35.28663345,-99999.0,'11111222,11111222,99999999' 
TABS,ioos:station:wmo:42050:1,2005-04-01T18:00:00Z,28.8425,-94.2433,2.0,135.4829832,33.5463381,-99999.0,'11111222,11111222,99999999' 
TABS,ioos:station:wmo:42050:1,2005-04-01T18:30:00Z,28.8425,-94.2433,2.0,136.9776198,39.95411994,-99999.0,'11111222,11111222,99999999' 
TABS,ioos:station:wmo:42050:1,2005-04-01T19:00:00Z,28.8425,-94.2433,2.0,130.2077353,35.38002261,-99999.0,'11111222,11111222,99999999' 
TABS,ioos:station:wmo:42050:1,2005-04-01T19:30:00Z,28.8425,-94.2433,2.0,128.5354117,37.43181534,-99999.0,'11111222,11111222,99999999' 
TABS,ioos:station:wmo:42050:1,2005-04-01T20:00:00Z,28.8425,-94.2433,2.0,129.1880919,36.24166249,-99999.0,'11111222,11111222,99999999' 
TABS,ioos:station:wmo:42050:1,2005-04-01T20:30:00Z,28.8425,-94.2433,2.0,131.6691086,34.68561229,-99999.0,'11111222,11111222,99999999' 
TABS,ioos:station:wmo:42050:1,2005-04-01T21:00:00Z,28.8425,-94.2433,2.0,125.4954543,34.77200311,-99999.0,'11111222,11111222,99999999' 
TABS,ioos:station:wmo:42050:1,2005-04-01T21:30:00Z,28.8425,-94.2433,2.0,131.825977,38.05829739,-99999.0,'11111222,11111222,99999999' 
TABS,ioos:station:wmo:42050:1,2005-04-01T22:00:00Z,28.8425,-94.2433,2.0,123.1754778,31.19482329,-99999.0,'11111222,11111222,99999999' 
TABS,ioos:station:wmo:42050:1,2005-04-01T22:30:00Z,28.8425,-94.2433,2.0,127.8626504,36.93554521,-99999.0,'11111222,11111222,99999999' 
TABS,ioos:station:wmo:42050:1,2005-04-01T23:00:00Z,28.8425,-94.2433,2.0,125.1217677,37.96166619,-99999.0,'11111222,11111222,99999999' 
TABS,ioos:station:wmo:42050:1,2005-04-01T23:30:00Z,28.8425,-94.2433,2.0,129.8383423,33.48292998,-99999.0,'11111222,11111222,99999999' 
TABS,ioos:station:wmo:42050:1,2005-04-02T00:00:00Z,28.8425,-94.2433,2.0,139.6561757,33.53561838,-99999.0,'11111222,11111222,99999999' 
TABS,ioos:station:wmo:42050:1,2005-04-02T00:30:00Z,28.8425,-94.2433,2.0,135.722932,37.54328835,-99999.0,'11111222,11111222,99999999' 
TABS,ioos:station:wmo:42050:1,2005-04-02T01:00:00Z,28.8425,-94.2433,2.0,143.3889922,34.50835261,-99999.0,'11111222,11111222,99999999' 
TABS,ioos:station:wmo:42050:1,2005-04-02T01:30:00Z,28.8425,-94.2433,2.0,142.3239964,42.65422019,-99999.0,'11111222,11111222,99999999' 
TABS,ioos:station:wmo:42050:1,2005-04-02T02:00:00Z,28.8425,-94.2433,2.0,142.4035001,42.74743618,-99999.0,'11111222,11111222,99999999' 
TABS,ioos:station:wmo:42050:1,2005-04-02T02:30:00Z,28.8425,-94.2433,2.0,148.5275121,44.4370341,-99999.0,'11111222,11111222,99999999' 
TABS,ioos:station:wmo:42050:1,2005-04-02T03:00:00Z,28.8425,-94.2433,2.0,153.1377865,44.86059852,-99999.0,'11111222,11111222,99999999' 
TABS,ioos:station:wmo:42050:1,2005-04-02T03:30:00Z,28.8425,-94.2433,2.0,151.3150499,42.43830581,-99999.0,'11111222,11111222,99999999' 
TABS,ioos:station:wmo:42050:1,2005-04-02T04:00:00Z,28.8425,-94.2433,2.0,151.3213279,42.32177926,-99999.0,'11111222,11111222,99999999' 
TABS,ioos:station:wmo:42050:1,2005-04-02T04:30:00Z,28.8425,-94.2433,2.0,160.9383929,47.43067573,-99999.0,'11111222,11111222,99999999' 
TABS,ioos:station:wmo:42050:1,2005-04-02T05:00:00Z,28.8425,-94.2433,2.0,163.0667048,42.47132915,-99999.0,'11111222,11111222,99999999' 
TABS,ioos:station:wmo:42050:1,2005-04-02T05:30:00Z,28.8425,-94.2433,2.0,166.6623145,39.57748097,-99999.0,'11111222,11111222,99999999' 
TABS,ioos:station:wmo:42050:1,2005-04-02T06:00:00Z,28.8425,-94.2433,2.0,169.3167135,41.05152494,-99999.0,'11111222,11111222,99999999' 
TABS,ioos:station:wmo:42050:1,2005-04-02T06:30:00Z,28.8425,-94.2433,2.0,174.8672471,38.56462887,-99999.0,'11111222,11111222,99999999' 
TABS,ioos:station:wmo:42050:1,2005-04-02T07:00:00Z,28.8425,-94.2433,2.0,175.7480977,33.18131553,-99999.0,'11111222,11111222,99999999' 
TABS,ioos:station:wmo:42050:1,2005-04-02T07:30:00Z,28.8425,-94.2433,2.0,177.7670544,28.49163035,-99999.0,'11111222,11111222,99999999' 
TABS,ioos:station:wmo:42050:1,2005-04-02T08:00:00Z,28.8425,-94.2433,2.0,183.85163,27.2415363,-99999.0,'11111222,11111222,99999999' 
TABS,ioos:station:wmo:42050:1,2005-04-02T08:30:00Z,28.8425,-94.2433,2.0,193.3359596,26.40197341,-99999.0,'11111222,11111222,99999999' 
TABS,ioos:station:wmo:42050:1,2005-04-02T09:00:00Z,28.8425,-94.2433,2.0,196.9726346,22.0609066,-99999.0,'11111222,11111222,99999999' 
TABS,ioos:station:wmo:42050:1,2005-04-02T09:30:00Z,28.8425,-94.2433,2.0,211.3984138,16.71816377,-99999.0,'11111222,11111222,99999999' 
TABS,ioos:station:wmo:42050:1,2005-04-02T10:00:00Z,28.8425,-94.2433,2.0,212.1867067,14.38000348,-99999.0,'11111222,11111222,99999999' 
TABS,ioos:station:wmo:42050:1,2005-04-02T10:30:00Z,28.8425,-94.2433,2.0,227.3727406,11.78343329,-99999.0,'11111222,11111222,99999999' 
TABS,ioos:station:wmo:42050:1,2005-04-02T11:00:00Z,28.8425,-94.2433,2.0,250.938136,10.4108405,-99999.0,'11111222,11111222,99999999' 
TABS,ioos:station:wmo:42050:1,2005-04-02T11:30:00Z,28.8425,-94.2433,2.0,261.5773599,8.875719689,-99999.0,'11133222,11111222,99999999' 
TABS,ioos:station:wmo:42050:1,2005-04-02T12:00:00Z,28.8425,-94.2433,2.0,281.1499171,7.705433148,-99999.0,'11133222,11111222,99999999' 
TABS,ioos:station:wmo:42050:1,2005-04-02T12:30:00Z,28.8425,-94.2433,2.0,297.5091101,6.516786018,-99999.0,'11133222,11111222,99999999' 
TABS,ioos:station:wmo:42050:1,2005-04-02T13:00:00Z,28.8425,-94.2433,2.0,327.7348754,7.474122022,-99999.0,'11133222,11111222,99999999' 
TABS,ioos:station:wmo:42050:1,2005-04-02T13:30:00Z,28.8425,-94.2433,2.0,316.6751498,8.467685634,-99999.0,'11133222,11111222,99999999' 
TABS,ioos:station:wmo:42050:1,2005-04-02T14:00:00Z,28.8425,-94.2433,2.0,339.0411449,6.82132685,-99999.0,'11133222,11111222,99999999' 
TABS,ioos:station:wmo:42050:1,2005-04-02T14:30:00Z,28.8425,-94.2433,2.0,350.2315907,7.072545511,-99999.0,'11133222,11111222,99999999' 
TABS,ioos:station:wmo:42050:1,2005-04-02T15:00:00Z,28.8425,-94.2433,2.0,343.9642659,5.212839917,-99999.0,'11133222,11111222,99999999' 
TABS,ioos:station:wmo:42050:1,2005-04-02T15:30:00Z,28.8425,-94.2433,2.0,324.9821216,3.58987465,-99999.0,'11133222,11111222,99999999' 
TABS,ioos:station:wmo:42050:1,2005-04-02T16:00:00Z,28.8425,-94.2433,2.0,340.0716764,4.488797166,-99999.0,'11133222,11111222,99999999' 
TABS,ioos:station:wmo:42050:1,2005-04-02T16:30:00Z,28.8425,-94.2433,2.0,7.588507155,5.982390826,-99999.0,'11133222,11111222,99999999' 
TABS,ioos:station:wmo:42050:1,2005-04-02T17:00:00Z,28.8425,-94.2433,2.0,1.679406426,3.071318935,-99999.0,'11133222,11111222,99999999' 
TABS,ioos:station:wmo:42050:1,2005-04-02T17:30:00Z,28.8425,-94.2433,2.0,34.69528286,3.478505426,-99999.0,'11133222,11111222,99999999' 
TABS,ioos:station:wmo:42050:1,2005-04-02T18:00:00Z,28.8425,-94.2433,2.0,37.64103476,1.93217494,-99999.0,'11133222,11111222,99999999' 
TABS,ioos:station:wmo:42050:1,2005-04-02T18:30:00Z,28.8425,-94.2433,2.0,135.282137,4.306332546,-99999.0,'11133222,11111222,99999999' 
TABS,ioos:station:wmo:42050:1,2005-04-02T19:00:00Z,28.8425,-94.2433,2.0,134.1318454,4.667440412,-99999.0,'11133222,11111222,99999999' 
TABS,ioos:station:wmo:42050:1,2005-04-02T19:30:00Z,28.8425,-94.2433,2.0,123.6399707,6.354093169,-99999.0,'11133222,11111222,99999999' 
TABS,ioos:station:wmo:42050:1,2005-04-02T20:00:00Z,28.8425,-94.2433,2.0,154.814746,7.613783554,-99999.0,'11133222,11111222,99999999' 
TABS,ioos:station:wmo:42050:1,2005-04-02T20:30:00Z,28.8425,-94.2433,2.0,155.4145167,7.378956566,-99999.0,'11133222,11111222,99999999' 
TABS,ioos:station:wmo:42050:1,2005-04-02T21:00:00Z,28.8425,-94.2433,2.0,140.8174891,7.53413565,-99999.0,'11133222,11111222,99999999' 
TABS,ioos:station:wmo:42050:1,2005-04-02T21:30:00Z,28.8425,-94.2433,2.0,113.168333,4.981766755,-99999.0,'11133222,11111222,99999999' 
TABS,ioos:station:wmo:42050:1,2005-04-02T22:00:00Z,28.8425,-94.2433,2.0,88.76359529,5.561294813,-99999.0,'11133222,11111222,99999999' 
TABS,ioos:station:wmo:42050:1,2005-04-02T22:30:00Z,28.8425,-94.2433,2.0,93.63964192,6.77366223,-99999.0,'11133222,11111222,99999999' 
TABS,ioos:station:wmo:42050:1,2005-04-02T23:00:00Z,28.8425,-94.2433,2.0,50.76510174,15.55725233,-99999.0,'11111222,11111222,99999999' 
TABS,ioos:station:wmo:42050:1,2005-04-02T23:30:00Z,28.8425,-94.2433,2.0,44.84945971,16.13623252,-99999.0,'11111222,11111222,99999999' 
TABS,ioos:station:wmo:42050:1,2005-04-03T00:00:00Z,28.8425,-94.2433,2.0,43.63563046,17.52000285,-99999.0,'11111222,11111222,99999999' 
TABS,ioos:station:wmo:42050:1,2005-04-03T00:30:00Z,28.8425,-94.2433,2.0,41.17737697,18.6667244,-99999.0,'11111222,11111222,99999999' 
TABS,ioos:station:wmo:42050:1,2005-04-03T01:00:00Z,28.8425,-94.2433,2.0,44.0893824,19.12965499,-99999.0,'11111222,11111222,99999999' 
TABS,ioos:station:wmo:42050:1,2005-04-03T01:30:00Z,28.8425,-94.2433,2.0,52.84478298,19.2722391,-99999.0,'11111222,11111222,99999999' 
TABS,ioos:station:wmo:42050:1,2005-04-03T02:00:00Z,28.8425,-94.2433,2.0,50.01030434,19.51292136,-99999.0,'11111222,11111222,99999999' 
TABS,ioos:station:wmo:42050:1,2005-04-03T02:30:00Z,28.8425,-94.2433,2.0,56.82339936,20.1197838,-99999.0,'11111222,11111222,99999999' 
TABS,ioos:station:wmo:42050:1,2005-04-03T03:00:00Z,28.8425,-94.2433,2.0,60.5227475,15.13984478,-99999.0,'11111222,11111222,99999999' 
TABS,ioos:station:wmo:42050:1,2005-04-03T03:30:00Z,28.8425,-94.2433,2.0,68.28027706,16.94285985,-99999.0,'11111222,11111222,99999999' 
TABS,ioos:station:wmo:42050:1,2005-04-03T04:00:00Z,28.8425,-94.2433,2.0,74.42932581,19.74462965,-99999.0,'11111222,11111222,99999999' 
TABS,ioos:station:wmo:42050:1,2005-04-03T04:30:00Z,28.8425,-94.2433,2.0,85.06792411,19.77321421,-99999.0,'11111222,11111222,99999999' 
TABS,ioos:station:wmo:42050:1,2005-04-03T05:00:00Z,28.8425,-94.2433,2.0,95.72645482,21.54753118,-99999.0,'11111222,11111222,99999999' 
TABS,ioos:station:wmo:42050:1,2005-04-03T05:30:00Z,28.8425,-94.2433,2.0,99.4897866,20.56138371,-99999.0,'11111222,11111222,99999999' 
TABS,ioos:station:wmo:42050:1,2005-04-03T06:00:00Z,28.8425,-94.2433,2.0,115.6953666,19.74228204,-99999.0,'11111222,11111222,99999999' 
TABS,ioos:station:wmo:42050:1,2005-04-03T06:30:00Z,28.8425,-94.2433,2.0,118.5908546,18.7231194,-99999.0,'11111222,11111222,99999999' 
TABS,ioos:station:wmo:42050:1,2005-04-03T07:00:00Z,28.8425,-94.2433,2.0,125.627824,17.71616211,-99999.0,'11111222,11111222,99999999' 
TABS,ioos:station:wmo:42050:1,2005-04-03T07:30:00Z,28.8425,-94.2433,2.0,126.2006491,17.98122632,-99999.0,'11111222,11111222,99999999' 
TABS,ioos:station:wmo:42050:1,2005-04-03T08:00:00Z,28.8425,-94.2433,2.0,124.6730564,18.10530585,-99999.0,'11111222,11111222,99999999' 
TABS,ioos:station:wmo:42050:1,2005-04-03T08:30:00Z,28.8425,-94.2433,2.0,119.5708284,15.52177825,-99999.0,'11111222,11111222,99999999' 
TABS,ioos:station:wmo:42050:1,2005-04-03T09:00:00Z,28.8425,-94.2433,2.0,116.7345023,15.11588568,-99999.0,'11111222,11111222,99999999' 
TABS,ioos:station:wmo:42050:1,2005-04-03T09:30:00Z,28.8425,-94.2433,2.0,107.301733,14.39117785,-99999.0,'11111222,11111222,99999999' 
TABS,ioos:station:wmo:42050:1,2005-04-03T10:00:00Z,28.8425,-94.2433,2.0,103.8143311,13.77855217,-99999.0,'11111222,11111222,99999999' 
TABS,ioos:station:wmo:42050:1,2005-04-03T10:30:00Z,28.8425,-94.2433,2.0,100.6663714,12.04817414,-99999.0,'11111222,11111222,99999999' 
TABS,ioos:station:wmo:42050:1,2005-04-03T11:00:00Z,28.8425,-94.2433,2.0,93.82662662,12.13705895,-99999.0,'11111222,11111222,99999999' 
TABS,ioos:station:wmo:42050:1,2005-04-03T11:30:00Z,28.8425,-94.2433,2.0,92.27341869,9.327341529,-99999.0,'11133222,11111222,99999999' 
TABS,ioos:station:wmo:42050:1,2005-04-03T12:00:00Z,28.8425,-94.2433,2.0,77.15880762,7.559054174,-99999.0,'11133222,11111222,99999999' 
TABS,ioos:station:wmo:42050:1,2005-04-03T12:30:00Z,28.8425,-94.2433,2.0,61.42432485,7.902657781,-99999.0,'11133222,11111222,99999999' 
TABS,ioos:station:wmo:42050:1,2005-04-03T13:00:00Z,28.8425,-94.2433,2.0,43.38349478,9.273861116,-99999.0,'11133222,11111222,99999999' 
TABS,ioos:station:wmo:42050:1,2005-04-03T13:30:00Z,28.8425,-94.2433,2.0,40.54774821,8.106694764,-99999.0,'11133222,11111222,99999999' 
TABS,ioos:station:wmo:42050:1,2005-04-03T14:00:00Z,28.8425,-94.2433,2.0,28.08969545,7.900588586,-99999.0,'11133222,11111222,99999999' 
TABS,ioos:station:wmo:42050:1,2005-04-03T14:30:00Z,28.8425,-94.2433,2.0,14.58694571,10.60172156,-99999.0,'11111222,11111222,99999999' 
TABS,ioos:station:wmo:42050:1,2005-04-03T15:00:00Z,28.8425,-94.2433,2.0,10.13565502,11.19469964,-99999.0,'11111222,11111222,99999999' 
TABS,ioos:station:wmo:42050:1,2005-04-03T15:30:00Z,28.8425,-94.2433,2.0,359.0388177,13.11184579,-99999.0,'11111222,11144222,99999999' 
TABS,ioos:station:wmo:42050:1,2005-04-03T16:00:00Z,28.8425,-94.2433,2.0,356.6635036,13.57300998,-99999.0,'11111222,11111222,99999999' 
TABS,ioos:station:wmo:42050:1,2005-04-03T16:30:00Z,28.8425,-94.2433,2.0,349.4168967,14.53729686,-99999.0,'11111222,11111222,99999999' 
TABS,ioos:station:wmo:42050:1,2005-04-03T17:00:00Z,28.8425,-94.2433,2.0,345.8137493,13.87308545,-99999.0,'11111222,11111222,99999999' 
TABS,ioos:station:wmo:42050:1,2005-04-03T17:30:00Z,28.8425,-94.2433,2.0,341.0364995,17.81703118,-99999.0,'11111222,11111222,99999999' 
TABS,ioos:station:wmo:42050:1,2005-04-03T18:00:00Z,28.8425,-94.2433,2.0,3.69625045,15.8229106,-99999.0,'11111222,11111222,99999999' 
TABS,ioos:station:wmo:42050:1,2005-04-03T18:30:00Z,28.8425,-94.2433,2.0,4.379168827,15.58549646,-99999.0,'11111222,11111222,99999999' 
TABS,ioos:station:wmo:42050:1,2005-04-03T19:00:00Z,28.8425,-94.2433,2.0,8.640450485,16.04206034,-99999.0,'11111222,11111222,99999999' 
TABS,ioos:station:wmo:42050:1,2005-04-03T19:30:00Z,28.8425,-94.2433,2.0,14.30621881,16.99708504,-99999.0,'11111222,11111222,99999999' 
TABS,ioos:station:wmo:42050:1,2005-04-03T20:00:00Z,28.8425,-94.2433,2.0,14.99684294,18.66573867,-99999.0,'11111222,11111222,99999999' 
TABS,ioos:station:wmo:42050:1,2005-04-03T20:30:00Z,28.8425,-94.2433,2.0,14.26691958,16.8806161,-99999.0,'11111222,11111222,99999999' 
TABS,ioos:station:wmo:42050:1,2005-04-03T21:00:00Z,28.8425,-94.2433,2.0,17.79512344,19.53460775,-99999.0,'11111222,11111222,99999999' 
TABS,ioos:station:wmo:42050:1,2005-04-03T21:30:00Z,28.8425,-94.2433,2.0,10.31464095,21.33477209,-99999.0,'11111222,11111222,99999999' 
TABS,ioos:station:wmo:42050:1,2005-04-03T22:00:00Z,28.8425,-94.2433,2.0,8.217149185,25.1885867,-99999.0,'11111222,11111222,99999999' 
TABS,ioos:station:wmo:42050:1,2005-04-03T22:30:00Z,28.8425,-94.2433,2.0,48.11866373,16.50710453,-99999.0,'11111222,11111222,99999999' 
TABS,ioos:station:wmo:42050:1,2005-04-03T23:00:00Z,28.8425,-94.2433,2.0,60.87005198,19.18679754,-99999.0,'11111222,11111222,99999999' 
TABS,ioos:station:wmo:42050:1,2005-04-03T23:30:00Z,28.8425,-94.2433,2.0,59.96045163,17.11950058,-99999.0,'11111222,11111222,99999999' 
TABS,ioos:station:wmo:42050:1,2005-04-04T00:00:00Z,28.8425,-94.2433,2.0,55.68229524,19.49333476,-99999.0,'11111222,11111222,99999999' 
TABS,ioos:station:wmo:42050:1,2005-04-04T00:30:00Z,28.8425,-94.2433,2.0,55.76794227,17.2963262,-99999.0,'11111222,11111222,99999999' 
TABS,ioos:station:wmo:42050:1,2005-04-04T01:00:00Z,28.8425,-94.2433,2.0,53.76954979,21.14931677,-99999.0,'11111222,11111222,99999999' 
TABS,ioos:station:wmo:42050:1,2005-04-04T01:30:00Z,28.8425,-94.2433,2.0,53.57212635,18.92856307,-99999.0,'11111222,11111222,99999999' 
TABS,ioos:station:wmo:42050:1,2005-04-04T02:00:00Z,28.8425,-94.2433,2.0,55.18311125,19.03821945,-99999.0,'11111222,11111222,99999999' 
TABS,ioos:station:wmo:42050:1,2005-04-04T02:30:00Z,28.8425,-94.2433,2.0,68.53098637,16.96726849,-99999.0,'11111222,11111222,99999999' 
TABS,ioos:station:wmo:42050:1,2005-04-04T03:00:00Z,28.8425,-94.2433,2.0,63.12697281,16.63658619,-99999.0,'11111222,11111222,99999999' 
TABS,ioos:station:wmo:42050:1,2005-04-04T03:30:00Z,28.8425,-94.2433,2.0,75.82830332,18.46186339,-99999.0,'11111222,11111222,99999999' 
TABS,ioos:station:wmo:42050:1,2005-04-04T04:00:00Z,28.8425,-94.2433,2.0,76.65179652,19.18837669,-99999.0,'11111222,11111222,99999999' 
TABS,ioos:station:wmo:42050:1,2005-04-04T04:30:00Z,28.8425,-94.2433,2.0,86.17860696,15.60469481,-99999.0,'11111222,11111222,99999999' 
TABS,ioos:station:wmo:42050:1,2005-04-04T05:00:00Z,28.8425,-94.2433,2.0,89.47175724,14.10059928,-99999.0,'11111222,11111222,99999999' 
TABS,ioos:station:wmo:42050:1,2005-04-04T05:30:00Z,28.8425,-94.2433,2.0,104.1797571,13.55293326,-99999.0,'11111222,11111222,99999999' 
TABS,ioos:station:wmo:42050:1,2005-04-04T06:00:00Z,28.8425,-94.2433,2.0,99.9575016,15.78782442,-99999.0,'11111222,11111222,99999999' 
TABS,ioos:station:wmo:42050:1,2005-04-04T06:30:00Z,28.8425,-94.2433,2.0,120.446356,12.15631523,-99999.0,'11111222,11111222,99999999' 
TABS,ioos:station:wmo:42050:1,2005-04-04T07:00:00Z,28.8425,-94.2433,2.0,108.6744124,13.61688658,-99999.0,'11111222,11111222,99999999' 
TABS,ioos:station:wmo:42050:1,2005-04-04T07:30:00Z,28.8425,-94.2433,2.0,114.6002143,13.04394496,-99999.0,'11111222,11111222,99999999' 
TABS,ioos:station:wmo:42050:1,2005-04-04T08:00:00Z,28.8425,-94.2433,2.0,116.6093584,17.32505988,-99999.0,'11111222,11111222,99999999' 
TABS,ioos:station:wmo:42050:1,2005-04-04T08:30:00Z,28.8425,-94.2433,2.0,130.7353712,14.35866637,-99999.0,'11111222,11111222,99999999' 
TABS,ioos:station:wmo:42050:1,2005-04-04T09:00:00Z,28.8425,-94.2433,2.0,128.2249847,10.90905129,-99999.0,'11111222,11111222,99999999' 
TABS,ioos:station:wmo:42050:1,2005-04-04T09:30:00Z,28.8425,-94.2433,2.0,103.4877051,8.360586104,-99999.0,'11133222,11111222,99999999' 
TABS,ioos:station:wmo:42050:1,2005-04-04T10:00:00Z,28.8425,-94.2433,2.0,100.8625259,7.535011612,-99999.0,'11133222,11111222,99999999' 
TABS,ioos:station:wmo:42050:1,2005-04-04T10:30:00Z,28.8425,-94.2433,2.0,100.509576,5.756570159,-99999.0,'11133222,11111222,99999999' 
TABS,ioos:station:wmo:42050:1,2005-04-04T11:00:00Z,28.8425,-94.2433,2.0,56.20842334,4.692771036,-99999.0,'11133222,11111222,99999999' 
TABS,ioos:station:wmo:42050:1,2005-04-04T11:30:00Z,28.8425,-94.2433,2.0,36.20687849,9.158613432,-99999.0,'11133222,11111222,99999999' 
TABS,ioos:station:wmo:42050:1,2005-04-04T12:00:00Z,28.8425,-94.2433,2.0,27.20320929,10.04056771,-99999.0,'11111222,11111222,99999999' 
TABS,ioos:station:wmo:42050:1,2005-04-04T12:30:00Z,28.8425,-94.2433,2.0,25.04635267,11.81058847,-99999.0,'11111222,11111222,99999999' 
TABS,ioos:station:wmo:42050:1,2005-04-04T13:00:00Z,28.8425,-94.2433,2.0,24.77792592,15.19924011,-99999.0,'11111222,11111222,99999999' 
TABS,ioos:station:wmo:42050:1,2005-04-04T13:30:00Z,28.8425,-94.2433,2.0,26.06656948,15.93035153,-99999.0,'11111222,11111222,99999999' 
TABS,ioos:station:wmo:42050:1,2005-04-04T14:00:00Z,28.8425,-94.2433,2.0,24.65138717,16.47112018,-99999.0,'11111222,11111222,99999999' 
TABS,ioos:station:wmo:42050:1,2005-04-04T14:30:00Z,28.8425,-94.2433,2.0,18.96034802,16.55838156,-99999.0,'11111222,11111222,99999999' 
TABS,ioos:station:wmo:42050:1,2005-04-04T15:00:00Z,28.8425,-94.2433,2.0,21.41645073,15.74732041,-99999.0,'11111222,11111222,99999999' 
TABS,ioos:station:wmo:42050:1,2005-04-04T15:30:00Z,28.8425,-94.2433,2.0,9.963048955,16.18405388,-99999.0,'11111222,11111222,99999999' 
TABS,ioos:station:wmo:42050:1,2005-04-04T16:00:00Z,28.8425,-94.2433,2.0,17.32557263,19.10690189,-99999.0,'11111222,11111222,99999999' 